Weather History for Lancaster, CA

Change the Weather History Date:

Tuesday, November 20, 2012

  Actual Average Record
Temperature  
Mean Temperature 51 °F 50 °F  
Max Temperature 70 °F 65 °F 78 °F (1949)
Min Temperature 32 °F 34 °F 15 °F (1958)
Degree Days  
Heating Degree Days 14    
Month to date heating degree days 233  
Since 1 July heating degree days 325  
Cooling Degree Days 0    
Month to date cooling degree days 0  
Year to date cooling degree days 2282  
Growing Degree Days 1 (Base 50)    
Moisture  
Dew Point 32 °F    
Average Humidity 52    
Maximum Humidity 76    
Minimum Humidity 28    
Precipitation  
Precipitation 0.00 in 0.02 in 0.76 in (1967)
Month to date precipitation T 0.33  
Year to date precipitation 1.74 6.02  
Since 1 July precipitation 0.04 1.11  
Snow  
Snow 0.00 in - 0.00 in ()
Month to date snowfall 0.0  
Since 1 July snowfall 0.0  
Since 1 September snowfall 0.0  
Snow Depth 0.00 in    
Sea Level Pressure  
Sea Level Pressure 30.15 in    
Wind  
Wind Speed 2 mph (West)    
Max Wind Speed 10 mph    
Max Gust Speed 13 mph    
Visibility 10 miles    
Events      
T = Trace of Precipitation, MM = Missing Value Source: NWS Daily Summary

Daily Weather History Graph

Daily Weather History Graph

Search for Another Location

Airport:

Trip Planner

Search our weather history database for the weather conditions in past years. The results will help you decide how hot, cold, wet, or windy it might be!

Date:

Astronomy

Nov. 20, 2012 Rise Set
Actual Time 6:32 AM PST 4:44 PM PST
Civil Twilight 6:05 AM PST 5:11 PM PST
Nautical Twilight 5:34 AM PST 5:42 PM PST
Astronomical Twilight 5:04 AM PST 6:12 PM PST
Moon 12:17 PM PST (11/20) No Moon Set
Length of Visible Light 11h 06m
Length of Day
10h 12m
First Quarter, 52% of the Moon is Illuminated
Nov 20
First Quarter
Nov 28
Full
Dec 6
Last Quarter
Dec 13
New
Dec 19
First Quarter

Hourly Weather History & Observations

Time (PST) Temp. Windchill Dew Point Humidity Pressure Visibility Wind Dir Wind Speed Gust Speed Precip Events Conditions
12:56 AM 39.0 °F 34.8 °F 30.0 °F 70% 30.22 in 10.0 mi WNW 5.8 mph - N/A   Clear
1:56 AM 37.9 °F 33.5 °F 28.9 °F 70% 30.22 in - West 5.8 mph - N/A   Clear
2:56 AM 37.9 °F - 30.0 °F 73% 30.21 in 10.0 mi Calm Calm - N/A   Clear
3:56 AM 37.0 °F - 28.9 °F 73% 30.21 in 10.0 mi Calm Calm - N/A   Clear
4:56 AM 37.9 °F - 30.9 °F 76% 30.21 in 10.0 mi Calm Calm - N/A   Clear
5:56 AM 35.1 °F - 27.0 °F 72% 30.23 in 10.0 mi Calm Calm - N/A   Clear
6:56 AM 32.0 °F - 25.0 °F 75% 30.25 in 10.0 mi Calm Calm - N/A   Partly Cloudy
7:56 AM 39.9 °F - 30.9 °F 70% 30.25 in 10.0 mi Calm Calm - N/A   Clear
8:56 AM 48.9 °F - 34.0 °F 56% 30.23 in 10.0 mi Calm Calm - N/A   Clear
9:56 AM 55.0 °F - 36.0 °F 49% 30.21 in 10.0 mi Calm Calm - N/A   Clear
10:56 AM 61.0 °F - 36.0 °F 39% 30.18 in 10.0 mi Calm Calm - N/A   Clear
11:56 AM 64.9 °F - 37.0 °F 36% 30.13 in 10.0 mi Calm Calm - N/A   Clear
12:56 PM 66.0 °F - 37.0 °F 34% 30.11 in 10.0 mi Calm Calm - N/A   Clear
1:56 PM 68.0 °F - 36.0 °F 31% 30.09 in 10.0 mi Calm Calm - N/A   Clear
2:56 PM 70.0 °F - 36.0 °F 29% 30.07 in 10.0 mi Calm Calm - N/A   Clear
3:56 PM 69.1 °F - 36.0 °F 30% 30.06 in 10.0 mi Calm Calm - N/A   Clear
4:56 PM 64.9 °F - 35.1 °F 33% 30.07 in 10.0 mi West 9.2 mph - N/A   Clear
5:56 PM 57.0 °F - 34.0 °F 42% 30.10 in 10.0 mi West 5.8 mph - N/A   Clear
6:56 PM 54.0 °F - 33.1 °F 45% 30.12 in 10.0 mi WNW 8.1 mph - N/A   Clear
7:56 PM 52.0 °F - 33.1 °F 49% 30.12 in 10.0 mi WNW 8.1 mph - N/A   Clear
8:56 PM 48.9 °F - 30.9 °F 50% 30.12 in 10.0 mi Calm Calm - N/A   Clear
9:56 PM 48.9 °F - 33.1 °F 54% 30.10 in 10.0 mi SSE 5.8 mph - N/A   Clear
10:56 PM 43.0 °F 41.3 °F 30.0 °F 60% 30.10 in 10.0 mi NNW 3.5 mph - N/A   Clear
11:56 PM 43.0 °F 41.3 °F 30.0 °F 60% 30.10 in 10.0 mi West 3.5 mph - N/A   Clear